Change the Weather History Date:

Tuesday, February 5, 2013

  Actual Average Record
Temperature  
Mean Temperature 51 °F 44 °F  
Max Temperature 62 °F 54 °F 79 °F (2008)
Min Temperature 40 °F 34 °F 10 °F (1996)
Degree Days  
Heating Degree Days 14 21  
Month to date heating degree days 95 108  
Since 1 July heating degree days 1611 1897  
Cooling Degree Days 0 0  
Month to date cooling degree days 0 0  
Year to date cooling degree days 10 1  
Growing Degree Days 1 (Base 50)    
Moisture  
Dew Point 47 °F    
Average Humidity 86    
Maximum Humidity 100    
Minimum Humidity 72    
Precipitation  
Precipitation 0.02 in 0.22 in 1.82 in (2004)
Month to date precipitation 0.05 1.09  
Year to date precipitation 9.16 6.06  
Sea Level Pressure  
Sea Level Pressure 30.03 in    
Wind  
Wind Speed 2 mph (North)    
Max Wind Speed 8 mph    
Max Gust Speed 9 mph    
Visibility 7 miles    
Events Fog , Rain    
T = Trace of Precipitation, MM = Missing Value Source: NWS Daily Summary

Daily Weather History Graph

Daily Weather History Graph

Search for Another Location

Airport or City:

Trip Planner

Search our weather history database for the weather conditions in past years. The results will help you decide how hot, cold, wet, or windy it might be!

Date:

Astronomy

Feb. 05, 2013 Rise Set
Actual Time 6:56 AM CST 5:39 PM CST
Civil Twilight 6:30 AM CST 6:05 PM CST
Nautical Twilight 6:01 AM CST 6:34 PM CST
Astronomical Twilight 5:32 AM CST 7:04 PM CST
Moon 2:33 AM CST (2/5) 1:02 PM CST (2/5)
Length of Visible Light 11h 34m
Length of Day
10h 42m
Waning Crescent, 26% of the Moon is Illuminated
Feb 5
Waning Crescent
Feb 10
New
Feb 17
First Quarter
Feb 25
Full
Mar 4
Last Quarter

Hourly Weather History & Observations

Time (CST) Temp. Dew Point Humidity Pressure Visibility Wind Dir Wind Speed Gust Speed Precip Events Conditions
12:53 AM 48.9 °F 46.0 °F 90% 29.97 in 10.0 mi Calm Calm - 0.01 in   Overcast
1:53 AM 50.0 °F 46.9 °F 89% 29.97 in 10.0 mi Calm Calm - N/A   Overcast
2:30 AM 48.2 °F 46.4 °F 93% 29.94 in 10.0 mi NNE 3.5 mph - 0.00 in   Overcast
2:53 AM 50.0 °F 46.9 °F 89% 29.96 in 10.0 mi ENE 3.5 mph - 0.00 in   Overcast
3:53 AM 50.0 °F 48.0 °F 93% 29.96 in 10.0 mi Calm Calm - 0.01 in Rain Light Rain
4:53 AM 48.9 °F 46.9 °F 93% 29.97 in 10.0 mi Calm Calm - 0.00 in   Overcast
5:16 AM 48.2 °F 46.4 °F 93% 29.95 in 10.0 mi SSE 3.5 mph - N/A   Overcast
5:53 AM 48.9 °F 46.9 °F 93% 29.98 in 10.0 mi South 4.6 mph - N/A   Overcast
6:53 AM 48.9 °F 46.0 °F 90% 29.99 in 10.0 mi South 5.8 mph - N/A   Overcast
7:53 AM 50.0 °F 48.0 °F 93% 30.03 in 10.0 mi North 4.6 mph - N/A   Overcast
8:53 AM 52.0 °F 48.0 °F 86% 30.04 in 10.0 mi NNE 4.6 mph - N/A   Overcast
9:36 AM 53.6 °F 48.2 °F 82% 30.03 in 10.0 mi Calm Calm - N/A   Overcast
9:53 AM 54.0 °F 48.0 °F 80% 30.06 in 10.0 mi Calm Calm - N/A   Overcast
10:53 AM 55.0 °F 50.0 °F 83% 30.07 in 10.0 mi Calm Calm - N/A   Overcast
11:53 AM 55.9 °F 51.1 °F 84% 30.07 in 10.0 mi Calm Calm - N/A   Overcast
12:53 PM 57.0 °F 51.1 °F 81% 30.05 in 10.0 mi Calm Calm - N/A   Overcast
1:53 PM 57.9 °F 52.0 °F 81% 30.04 in 10.0 mi NNW 5.8 mph - N/A   Overcast
2:53 PM 61.0 °F 52.0 °F 72% 30.02 in 10.0 mi Calm Calm - N/A   Scattered Clouds
3:53 PM 61.0 °F 52.0 °F 72% 30.02 in 10.0 mi NW 5.8 mph - N/A   Clear
4:53 PM 59.0 °F 52.0 °F 78% 30.02 in 10.0 mi Calm Calm - N/A   Clear
5:53 PM 53.1 °F 50.0 °F 89% 30.02 in 9.0 mi WSW 5.8 mph - N/A   Clear
6:53 PM 51.1 °F 48.0 °F 89% 30.05 in 8.0 mi WNW 4.6 mph - N/A   Clear
7:53 PM 50.0 °F 48.9 °F 96% 30.06 in 6.0 mi Calm Calm - N/A   Clear
8:26 PM 48.2 °F 48.2 °F 100% 30.05 in 1.5 mi Calm Calm - N/A   Clear
8:36 PM 46.4 °F 46.4 °F 100% 30.05 in 0.5 mi Calm Calm - N/A Fog Fog
8:53 PM 46.0 °F 44.1 °F 93% 30.08 in 1.2 mi Calm Calm - N/A   Clear
9:05 PM 46.4 °F 44.6 °F 93% 30.06 in 0.8 mi Calm Calm - N/A   Clear
9:18 PM 46.4 °F 44.6 °F 93% 30.06 in 0.2 mi Calm Calm - N/A Fog Fog
9:53 PM 44.1 °F 44.1 °F 100% 30.09 in 0.2 mi Calm Calm - N/A Fog Fog
10:07 PM 46.4 °F 44.6 °F 93% 30.07 in 0.2 mi Calm Calm - N/A Fog Fog
10:53 PM 41.0 °F 41.0 °F 100% 30.09 in 0.2 mi Calm Calm - N/A Fog Fog
11:53 PM 39.9 °F 39.9 °F 100% 30.09 in 0.2 mi Calm Calm - N/A Fog Fog